Total_Precipitation_Accumulation
0.00 0.00 0.00 0.00 0.00 0.00 0.00 0.00 0.00 0.00 0.00 0.00 0.00 0.00 0.00 0.00 0.00 0.00 0.00 0.00 0.00 0.00 0.00 0.00 0.00 0.00 0.00 0.00 0.01 0.01 0.01 0.01 0.01 0.00 0.01 0.01 0.00 0.01
0.00 0.00 0.00 0.00 0.00 0.00 0.00 0.00 0.00 0.00 0.00 0.00 0.00 0.00 0.00 0.00 0.00 0.00 0.00 0.00 0.00 0.00 0.00 0.00 0.02 0.03 0.02 0.02 0.01 0.01 0.00 0.01 0.01 0.02 0.02 0.03 0.03 0.04
0.00 0.00 0.00 0.00 0.00 0.00 0.00 0.00 0.00 0.00 0.00 0.00 0.00 0.00 0.00 0.00 0.00 0.00 0.00 0.00 0.00 0.00 0.01 0.01 0.01 0.01 0.00 0.00 0.01 0.01 0.01 0.03 0.03 0.03 0.04 0.05 0.05 0.05
0.00 0.00 0.00 0.00 0.00 0.00 0.00 0.00 0.00 0.00 0.00 0.00 0.00 0.00 0.00 0.00 0.00 0.00 0.00 0.00 0.01 0.00 0.00 0.00 0.00 0.00 0.00 0.00 0.00 0.01 0.01 0.02 0.02 0.02 0.03 0.05 0.05 0.06
0.00 0.00 0.00 0.00 0.00 0.00 0.00 0.00 0.00 0.00 0.00 0.01 0.01 0.00 0.00 0.00 0.01 0.00 0.00 0.00 0.00 0.00 0.00 0.00 0.00 0.00 0.00 0.01 0.02 0.02 0.01 0.01 0.02 0.04 0.04 0.05 0.05 0.05
0.00 0.00 0.00 0.00 0.00 0.00 0.00 0.00 0.00 0.00 0.00 0.01 0.06 0.04 0.02 0.02 0.01 0.01 0.00 0.00 0.00 0.00 0.00 0.00 0.00 0.00 0.00 0.00 0.00 0.00 0.00 0.00 0.00 0.01 0.02 0.02 0.02 0.03
0.00 0.00 0.00 0.00 0.00 0.00 0.00 0.00 0.00 0.01 0.07 0.11 0.07 0.08 0.04 0.00 0.00 0.00 0.01 0.01 0.01 0.00 0.00 0.00 0.00 0.00 0.00 0.00 0.00 0.00 0.00 0.02 0.05 0.07 0.08 0.07 0.06 0.05
0.00 0.00 0.00 0.00 0.00 0.00 0.00 0.01 0.01 0.04 0.05 0.15 0.12 0.02 0.00 0.00 0.00 0.02 0.06 0.06 0.02 0.00 0.00 0.00 0.00 0.00 0.00 0.00 0.00 0.01 0.02 0.03 0.03 0.03 0.03 0.04 0.04 0.04
0.00 0.00 0.00 0.00 0.00 0.00 0.00 0.02 0.03 0.09 0.11 0.04 0.00 0.00 0.01 0.02 0.09 0.09 0.03 0.03 0.02 0.00 0.00 0.00 0.00 0.00 0.00 0.00 0.00 0.00 0.01 0.01 0.01 0.02 0.02 0.03 0.02 0.02
0.00 0.00 0.00 0.00 0.00 0.01 0.01 0.03 0.08 0.06 0.00 0.00 0.00 0.01 0.03 0.04 0.02 0.00 0.01 0.02 0.01 0.00 0.00 0.01 0.00 0.00 0.00 0.00 0.00 0.00 0.00 0.02 0.06 0.09 0.10 0.08 0.06 0.03
0.00 0.00 0.01 0.01 0.01 0.01 0.05 0.11 0.02 0.00 0.00 0.00 0.03 0.02 0.00 0.00 0.00 0.04 0.07 0.05 0.03 0.00 0.00 0.01 0.01 0.00 0.00 0.00 0.00 0.00 0.01 0.03 0.03 0.03 0.03 0.04 0.05 0.04
0.00 0.00 0.00 0.01 0.01 0.08 0.05 0.01 0.01 0.00 0.02 0.02 0.00 0.00 0.00 0.00 0.00 0.01 0.06 0.14 0.06 0.04 0.00 0.06 0.03 0.01 0.07 0.01 0.00 0.00 0.00 0.00 0.01 0.02 0.03 0.03 0.02 0.01
0.01 0.00 0.00 0.01 0.07 0.04 0.01 0.00 0.00 0.01 0.00 0.00 0.00 0.00 0.00 0.00 0.00 0.00 0.03 0.15 0.19 0.12 0.01 0.12 0.13 0.02 0.06 0.02 0.00 0.00 0.00 0.00 0.06 0.13 0.16 0.11 0.05 0.03
0.00 0.00 0.01 0.05 0.01 0.00 0.00 0.00 0.01 0.00 0.00 0.00 0.00 0.00 0.00 0.01 0.01 0.01 0.01 0.04 0.08 0.16 0.07 0.10 0.18 0.08 0.10 0.04 0.00 0.00 0.00 0.06 0.31 0.44 0.69 0.30 0.11 0.03
0.01 0.03 0.03 0.00 0.00 0.00 0.00 0.00 0.00 0.00 0.01 0.03 0.01 0.00 0.01 0.01 0.02 0.02 0.01 0.01 0.02 0.02 0.05 0.07 0.11 0.08 0.06 0.04 0.01 0.01 0.04 0.04 0.15 0.30 0.48 0.49 0.20 0.03
0.01 0.03 0.00 0.00 0.00 0.00 0.00 0.00 0.00 0.00 0.04 0.05 0.03 0.01 0.01 0.02 0.03 0.03 0.05 0.02 0.03 0.01 0.00 0.02 0.07 0.07 0.03 0.00 0.02 0.05 0.09 0.14 0.09 0.16 0.20 0.29 0.25 0.07
0.01 0.00 0.00 0.00 0.00 0.00 0.00 0.00 0.00 0.00 0.02 0.01 0.03 0.03 0.01 0.01 0.01 0.02 0.05 0.04 0.05 0.04 0.02 0.00 0.00 0.01 0.00 0.01 0.04 0.06 0.11 0.12 0.17 0.21 0.18 0.25 0.25 0.18
0.00 0.00 0.00 0.00 0.00 0.00 0.00 0.01 0.00 0.01 0.02 0.02 0.02 0.02 0.04 0.03 0.03 0.02 0.03 0.06 0.06 0.04 0.04 0.03 0.02 0.01 0.01 0.01 0.08 0.15 0.16 0.16 0.28 0.23 0.21 0.18 0.32 0.34
0.00 0.00 0.00 0.00 0.00 0.00 0.01 0.02 0.02 0.01 0.02 0.02 0.03 0.05 0.04 0.02 0.02 0.02 0.03 0.04 0.03 0.04 0.05 0.04 0.04 0.04 0.04 0.04 0.03 0.18 0.22 0.20 0.23 0.19 0.21 0.16 0.28 0.34
0.00 0.00 0.00 0.00 0.00 0.02 0.02 0.03 0.03 0.01 0.01 0.02 0.04 0.03 0.03 0.04 0.03 0.03 0.04 0.05 0.05 0.04 0.01 0.01 0.02 0.05 0.08 0.07 0.05 0.21 0.23 0.17 0.13 0.18 0.26 0.16 0.28 0.23
0.00 0.00 0.00 0.00 0.01 0.02 0.02 0.02 0.02 0.02 0.03 0.04 0.02 0.04 0.04 0.05 0.02 0.03 0.04 0.04 0.04 0.03 0.01 0.00 0.02 0.07 0.08 0.03 0.06 0.09 0.17 0.20 0.12 0.12 0.14 0.10 0.18 0.10
0.00 0.00 0.00 0.01 0.02 0.02 0.02 0.02 0.02 0.01 0.01 0.02 0.02 0.03 0.03 0.04 0.05 0.04 0.03 0.03 0.02 0.03 0.02 0.00 0.01 0.05 0.04 0.02 0.05 0.07 0.09 0.09 0.07 0.05 0.07 0.09 0.11 0.19
0.00 0.01 0.00 0.01 0.02 0.02 0.02 0.01 0.01 0.01 0.01 0.03 0.02 0.02 0.03 0.05 0.05 0.05 0.03 0.03 0.02 0.01 0.01 0.00 0.00 0.01 0.02 0.04 0.03 0.04 0.03 0.03 0.02 0.02 0.14 0.07 0.08 0.15